Weather History for EHWO - November, 2012

Change the Weather History Date:

Thursday, November 15, 2012

  Actual Average Record
Temperature  
Mean Temperature 35 °F -  
Max Temperature 44 °F 45 °F 59 °F (2006)
Min Temperature 26 °F 36 °F 23 °F (2001)
Degree Days  
Heating Degree Days 30    
Moisture  
Dew Point 34 °F    
Average Humidity 96    
Maximum Humidity 100    
Minimum Humidity 81    
Precipitation  
Precipitation 0.00 in - - ()
Sea Level Pressure  
Sea Level Pressure 30.22 in    
Wind  
Wind Speed 3 mph ()    
Max Wind Speed 6 mph    
Max Gust Speed -    
Visibility 2.5 miles    
Events Fog , Rain    
Averages and records for this station are not official NWS values.
T = Trace of Precipitation, MM = Missing Value Source: Averaged Metar Reports

Daily Weather History Graph

Daily Weather History Graph

Search for Another Location

Airport or City:

Trip Planner

Search our weather history database for the weather conditions in past years. The results will help you decide how hot, cold, wet, or windy it might be!

Date:

Astronomy

Nov. 15, 2012 Rise Set
Actual Time 8:00 AM CET 4:52 PM CET
Civil Twilight 7:24 AM CET 5:29 PM CET
Nautical Twilight 6:43 AM CET 6:10 PM CET
Astronomical Twilight 6:03 AM CET 6:49 PM CET
Moon 9:48 AM CET (11/15) 6:18 PM CET (11/15)
Length of Visible Light 10h 05m
Length of Day
8h 52m
Waxing Crescent, 4% of the Moon is Illuminated
Nov 15
Waxing Crescent
Nov 20
First Quarter
Nov 28
Full
Dec 6
Last Quarter
Dec 13
New

Hourly Weather History & Observations

Time (CET) Temp. Windchill Dew Point Humidity Pressure Visibility Wind Dir Wind Speed Gust Speed Precip Events Conditions
12:16 AM 32.0 °F - 32.0 °F 100% 30.27 in - East 2.3 mph - N/A   Mist
12:21 AM 32.0 °F - 32.0 °F 100% 30.27 in 2.5 mi ENE 2.3 mph - N/A   Mist
12:25 AM 32.0 °F - 32.0 °F 100% 30.27 in - ENE 2.3 mph - N/A   Mist
12:31 AM 32.0 °F 28.7 °F 32.0 °F 100% 30.27 in 3.1 mi NE 3.5 mph - N/A   Mist
12:35 AM 32.0 °F 28.7 °F 30.2 °F 93% 30.27 in - ENE 3.5 mph - N/A   Mist
12:43 AM 32.0 °F 28.7 °F 32.0 °F 100% 30.27 in 3.1 mi ENE 3.5 mph - N/A   Mist
12:45 AM 32.0 °F 28.7 °F 32.0 °F 100% 30.27 in - ENE 3.5 mph - N/A   Mist
12:55 AM 32.0 °F 28.7 °F 32.0 °F 100% 30.27 in 2.2 mi ENE 3.5 mph - N/A   Mist
12:59 AM 32.0 °F 28.7 °F 32.0 °F 100% 30.27 in - ENE 3.5 mph - N/A   Mist
1:06 AM 32.0 °F 28.7 °F 32.0 °F 100% 30.27 in 2.2 mi East 3.5 mph - N/A   Mist
1:10 AM 32.0 °F - 32.0 °F 100% 30.27 in - East 2.3 mph - N/A   Mist
1:14 AM 32.0 °F - 32.0 °F 100% 30.24 in 3.1 mi East 2.3 mph - N/A   Mist
1:21 AM 30.2 °F - 30.2 °F 100% 30.24 in - East 1.2 mph - N/A   Mist
1:25 AM 32.0 °F - 30.2 °F 93% 30.24 in - East 2.3 mph - N/A   Mist
1:28 AM 32.0 °F - 32.0 °F 100% 30.24 in 5.0 mi East 2.3 mph - N/A   Mist
1:33 AM 32.0 °F - 32.0 °F 100% 30.24 in 3.7 mi East 2.3 mph - N/A   Mist
1:37 AM 32.0 °F 28.7 °F 32.0 °F 100% 30.24 in - East 3.5 mph - N/A   Mist
1:45 AM 32.0 °F - 32.0 °F 100% 30.24 in - East 2.3 mph - N/A   Mist
1:46 AM 32.0 °F - 32.0 °F 100% 30.24 in 4.3 mi East 2.3 mph - N/A   Mist
1:55 AM 32.0 °F - 32.0 °F 100% 30.24 in 3.7 mi East 2.3 mph - N/A   Mist
1:56 AM 32.0 °F - 32.0 °F 100% 30.24 in - East 2.3 mph - N/A   Mist
2:05 AM 32.0 °F - 32.0 °F 100% 30.24 in 0.9 mi Calm Calm - N/A   Mist
2:12 AM 32.0 °F - 32.0 °F 100% 30.24 in 2.5 mi Calm Calm - N/A   Mist
2:16 AM 30.2 °F - 30.2 °F 100% 30.24 in 1.8 mi Calm Calm - N/A   Mist
2:25 AM 30.2 °F - 30.2 °F 100% 30.24 in 0.8 mi ENE 1.2 mph - N/A   Mist
2:26 AM 32.0 °F - 30.2 °F 93% 30.24 in 1.4 mi East 1.2 mph - N/A   Mist
2:31 AM 30.2 °F - 30.2 °F 100% 30.24 in 0.9 mi East 1.2 mph - N/A   Mist
2:40 AM 30.2 °F - 30.2 °F 100% 30.24 in 1.7 mi ENE 1.2 mph - N/A   Mist
2:44 AM 30.2 °F - 30.2 °F 100% 30.24 in 0.6 mi ENE 1.2 mph - N/A Fog Light Freezing Fog
2:48 AM 30.2 °F - 30.2 °F 100% 30.24 in - ENE 1.2 mph - N/A Fog Light Freezing Fog
2:55 AM 30.2 °F - 30.2 °F 100% 30.24 in 0.2 mi East 2.3 mph - N/A Fog Light Freezing Fog
3:01 AM 30.2 °F - 30.2 °F 100% 30.24 in 1.0 mi ENE 2.3 mph - N/A   Mist
3:14 AM 28.4 °F - 28.4 °F 100% 30.24 in 0.7 mi ENE 2.3 mph - N/A   Mist
3:25 AM 28.4 °F - 28.4 °F 100% 30.24 in - ENE 1.2 mph - N/A Fog Light Freezing Fog
3:34 AM 28.4 °F - 28.4 °F 100% 30.24 in 1.1 mi East 1.2 mph - N/A   Partly Cloudy
3:41 AM 28.4 °F - 28.4 °F 100% 30.24 in 0.5 mi East 1.2 mph - N/A Fog Light Freezing Fog
3:44 AM 28.4 °F - 28.4 °F 100% 30.24 in 0.4 mi ENE 1.2 mph - N/A Fog Light Freezing Fog
3:55 AM 28.4 °F - 28.4 °F 100% 30.24 in 0.2 mi NE 1.2 mph - N/A Fog Light Freezing Fog
4:05 AM 28.4 °F 24.6 °F 28.4 °F 100% 30.24 in 0.7 mi East 3.5 mph - N/A   Mist
4:12 AM 30.2 °F 26.7 °F 30.2 °F 100% 30.24 in 1.1 mi East 3.5 mph - N/A   Mist
4:19 AM 28.4 °F - 28.4 °F 100% 30.24 in - East 2.3 mph - N/A   Mist
4:25 AM 28.4 °F - 28.4 °F 100% 30.24 in 1.0 mi East 1.2 mph - N/A   Mist
4:29 AM 28.4 °F - 28.4 °F 100% 30.24 in 0.5 mi East 2.3 mph - N/A Fog Light Freezing Fog
4:33 AM 26.6 °F 22.6 °F 26.6 °F 100% 30.24 in 1.6 mi East 3.5 mph - N/A   Mist
4:34 AM 26.6 °F 22.6 °F 26.6 °F 100% 30.24 in - ENE 3.5 mph - N/A   Mist
4:46 AM 28.4 °F 23.3 °F 28.4 °F 100% 30.24 in 3.1 mi ENE 4.6 mph - N/A   Mist
4:55 AM 28.4 °F 24.6 °F 28.4 °F 100% 30.24 in - ENE 3.5 mph - N/A   Mist
4:58 AM 28.4 °F 24.6 °F 28.4 °F 100% 30.24 in 3.1 mi ENE 3.5 mph - N/A   Partly Cloudy
5:03 AM 28.4 °F 24.6 °F 28.4 °F 100% 30.24 in 3.7 mi NE 3.5 mph - N/A   Mist
5:16 AM 28.4 °F 24.6 °F 28.4 °F 100% 30.24 in 1.3 mi ENE 3.5 mph - N/A   Overcast
5:25 AM 30.2 °F 26.7 °F 30.2 °F 100% 30.24 in 0.5 mi East 3.5 mph - N/A Fog Light Freezing Fog
5:26 AM 30.2 °F 25.4 °F 30.2 °F 100% 30.24 in - East 4.6 mph - N/A Fog Light Freezing Fog
5:55 AM 32.0 °F 28.7 °F 32.0 °F 100% 30.24 in 0.2 mi ESE 3.5 mph - N/A Fog Light Freezing Fog
6:25 AM 32.0 °F 28.7 °F 32.0 °F 100% 30.24 in 0.2 mi East 3.5 mph - N/A Fog Light Freezing Fog
6:55 AM 32.0 °F 27.5 °F 32.0 °F 100% 30.24 in 0.2 mi East 4.6 mph - N/A Fog Fog
7:25 AM 33.8 °F - 33.8 °F 100% 30.24 in 0.2 mi Calm Calm - N/A Fog Fog
7:55 AM 33.8 °F - 33.8 °F 100% 30.24 in 0.2 mi NNW 2.3 mph - N/A Fog Fog
8:25 AM 33.8 °F - 33.8 °F 100% 30.24 in 0.1 mi NE 2.3 mph - N/A Rain Light Rain
8:55 AM 35.6 °F 32.8 °F 35.6 °F 100% 30.24 in 0.1 mi East 3.5 mph - N/A Fog Fog
9:02 AM 35.6 °F 31.7 °F 35.6 °F 100% 30.24 in 0.2 mi East 4.6 mph - N/A Fog Fog
9:25 AM 37.4 °F - 37.4 °F 100% 30.24 in 0.2 mi ESE 2.3 mph - N/A Fog Fog
9:55 AM 37.4 °F - 37.4 °F 100% 30.24 in 0.1 mi NE 2.3 mph - N/A Fog Fog
10:20 AM 39.2 °F 37.0 °F 39.2 °F 100% 30.24 in 0.2 mi East 3.5 mph - N/A Fog Fog
10:25 AM 39.2 °F 37.0 °F 39.2 °F 100% 30.24 in 0.2 mi East 3.5 mph - N/A Fog Fog
10:27 AM 39.2 °F 37.0 °F 39.2 °F 100% 30.24 in 0.3 mi East 3.5 mph - N/A Fog Fog
10:36 AM 39.2 °F 37.0 °F 39.2 °F 100% 30.24 in 0.5 mi East 3.5 mph - N/A Fog Fog
10:55 AM 39.2 °F - 39.2 °F 100% 30.24 in 0.6 mi East 2.3 mph - N/A   Overcast
11:25 AM 41.0 °F 38.0 °F 41.0 °F 100% 30.24 in 1.1 mi ESE 4.6 mph - N/A   Mostly Cloudy
11:48 AM 41.0 °F 39.0 °F 41.0 °F 100% 30.24 in 1.3 mi East 3.5 mph - N/A   Mostly Cloudy
11:55 AM 41.0 °F 39.0 °F 41.0 °F 100% 30.24 in 1.4 mi East 3.5 mph - N/A   Mostly Cloudy
11:59 AM 41.0 °F 39.0 °F 41.0 °F 100% 30.24 in 1.4 mi ENE 3.5 mph - N/A   Mostly Cloudy
12:10 PM 41.0 °F - 41.0 °F 100% 30.24 in 1.6 mi ESE 2.3 mph - N/A   Overcast
12:18 PM 42.8 °F 41.1 °F 42.8 °F 100% 30.24 in 1.9 mi ESE 3.5 mph - N/A   Overcast
12:25 PM 42.8 °F - 42.8 °F 100% 30.24 in 2.2 mi ESE 2.3 mph - N/A   Overcast
12:35 PM 42.8 °F - 42.8 °F 100% 30.21 in 2.8 mi ESE 2.3 mph - N/A   Mostly Cloudy
12:49 PM 42.8 °F 41.1 °F 42.8 °F 100% 30.21 in 3.1 mi SE 3.5 mph - N/A   Overcast
12:55 PM 42.8 °F - 42.8 °F 100% 30.21 in 3.7 mi SE 2.3 mph - N/A   Overcast
1:04 PM 42.8 °F 41.1 °F 42.8 °F 100% 30.21 in 4.3 mi ESE 3.5 mph - N/A   Overcast
1:25 PM 42.8 °F 41.1 °F 42.8 °F 100% 30.21 in 4.3 mi ESE 3.5 mph - N/A   Overcast
1:55 PM 42.8 °F 41.1 °F 41.0 °F 93% 30.21 in 4.3 mi East 3.5 mph - N/A   Overcast
1:59 PM 42.8 °F 41.1 °F 41.0 °F 93% 30.21 in 5.0 mi East 3.5 mph - N/A   Overcast
2:05 PM 42.8 °F 41.1 °F 41.0 °F 93% 30.21 in 4.3 mi ESE 3.5 mph - N/A   Overcast
2:11 PM 42.8 °F 41.1 °F 41.0 °F 93% 30.21 in 4.3 mi SE 3.5 mph - N/A   Overcast
2:15 PM 42.8 °F 41.1 °F 41.0 °F 93% 30.21 in 4.3 mi SE 3.5 mph - N/A   Overcast
2:25 PM 42.8 °F 39.3 °F 41.0 °F 93% 30.18 in 4.3 mi East 5.8 mph - N/A   Overcast
2:55 PM 44.6 °F 43.1 °F 39.2 °F 81% 30.18 in 4.3 mi East 3.5 mph - N/A   Overcast
3:11 PM 42.8 °F 39.3 °F 39.2 °F 87% 30.18 in 4.3 mi East 5.8 mph - N/A   Overcast
3:25 PM 42.8 °F 39.3 °F 37.4 °F 81% 30.18 in 4.3 mi East 5.8 mph - N/A   Overcast
3:55 PM 42.8 °F 40.1 °F 37.4 °F 81% 30.18 in 4.3 mi East 4.6 mph - N/A   Overcast
4:25 PM 42.8 °F 41.1 °F 37.4 °F 81% 30.18 in 4.3 mi East 3.5 mph - N/A   Overcast
4:55 PM 41.0 °F 38.0 °F 37.4 °F 87% 30.18 in 4.3 mi East 4.6 mph - N/A   Overcast
5:25 PM 41.0 °F - 35.6 °F 81% 30.18 in 4.3 mi ESE 2.3 mph - N/A   Overcast
5:55 PM 41.0 °F 39.0 °F 35.6 °F 81% 30.18 in 4.3 mi ESE 3.5 mph - N/A   Overcast
6:14 PM 41.0 °F - 35.6 °F 81% 30.18 in 5.0 mi ESE 2.3 mph - N/A   Overcast
6:25 PM 41.0 °F 39.0 °F 35.6 °F 81% 30.18 in 5.0 mi East 3.5 mph - N/A   Overcast
6:36 PM 41.0 °F 39.0 °F 35.6 °F 81% 30.18 in 5.0 mi ESE 3.5 mph - N/A   Overcast
6:55 PM 39.2 °F - 35.6 °F 87% 30.18 in 5.0 mi East 2.3 mph - N/A   Overcast
7:25 PM 39.2 °F 35.0 °F 35.6 °F 87% 30.18 in 5.0 mi ESE 5.8 mph - N/A   Overcast
7:55 PM 39.2 °F 35.9 °F 35.6 °F 87% 30.18 in 5.0 mi East 4.6 mph - N/A   Overcast
8:12 PM 39.2 °F 35.9 °F 35.6 °F 87% 30.18 in 5.0 mi ESE 4.6 mph - N/A   Overcast
8:25 PM 39.2 °F 35.9 °F 33.8 °F 81% 30.18 in 5.0 mi ESE 4.6 mph - N/A   Overcast
8:34 PM 39.2 °F 37.0 °F 33.8 °F 81% 30.18 in 4.3 mi ESE 3.5 mph - N/A   Overcast
8:55 PM 39.2 °F - 33.8 °F 81% 30.15 in 4.3 mi ESE 2.3 mph - N/A   Overcast
9:25 PM 39.2 °F 37.0 °F 33.8 °F 81% 30.15 in 4.3 mi East 3.5 mph - N/A   Overcast
9:55 PM 39.2 °F 37.0 °F 33.8 °F 81% 30.15 in 4.3 mi East 3.5 mph - N/A   Overcast
10:25 PM 39.2 °F 37.0 °F 33.8 °F 81% 30.15 in 4.3 mi ESE 3.5 mph - N/A   Overcast
10:55 PM 39.2 °F 35.9 °F 33.8 °F 81% 30.15 in 4.3 mi SSE 4.6 mph - N/A   Overcast
11:25 PM 39.2 °F 35.0 °F 33.8 °F 81% 30.15 in 5.0 mi SSE 5.8 mph - N/A   Overcast
11:55 PM 37.4 °F 33.8 °F 33.8 °F 87% 30.15 in 4.3 mi ESE 4.6 mph - N/A   Overcast